QPF
0.00 0.00 0.00 0.00 0.00 0.00 0.00 0.00 0.00 0.00 0.00 0.00 0.00 0.00 0.00 0.00 0.00 0.00 0.00 0.00 0.00 0.00 0.00 0.00 0.00 0.00 0.00 0.00 0.00 0.00 0.00 0.00 0.00 0.00 0.00 0.00 0.00 0.00 0.00 0.00 0.00 0.00 0.00 0.00 0.00 0.00 0.00 0.00 0.00 0.00 0.00 0.00 0.00 0.00
0.00 0.00 0.00 0.00 0.00 0.00 0.00 0.00 0.00 0.00 0.00 0.00 0.00 0.00 0.00 0.00 0.00 0.00 0.00 0.00 0.00 0.00 0.00 0.00 0.00 0.00 0.00 0.00 0.00 0.00 0.00 0.00 0.00 0.00 0.00 0.00 0.00 0.00 0.00 0.00 0.00 0.00 0.00 0.00 0.00 0.00 0.00 0.00 0.00 0.00 0.00 0.00 0.00 0.00
0.00 0.00 0.00 0.00 0.00 0.00 0.00 0.00 0.00 0.00 0.00 0.00 0.00 0.00 0.00 0.00 0.00 0.00 0.00 0.00 0.00 0.00 0.00 0.00 0.00 0.00 0.00 0.00 0.00 0.00 0.00 0.00 0.00 0.00 0.00 0.00 0.00 0.00 0.00 0.00 0.00 0.00 0.00 0.00 0.00 0.00 0.00 0.00 0.00 0.00 0.00 0.00 0.00 0.00
0.00 0.00 0.00 0.00 0.00 0.00 0.00 0.00 0.00 0.00 0.00 0.00 0.00 0.00 0.00 0.00 0.00 0.00 0.00 0.00 0.00 0.00 0.00 0.00 0.00 0.00 0.00 0.00 0.00 0.00 0.00 0.00 0.00 0.00 0.00 0.00 0.00 0.00 0.00 0.00 0.00 0.00 0.00 0.00 0.00 0.00 0.00 0.00 0.00 0.00 0.00 0.00 0.00 0.00
0.00 0.00 0.00 0.00 0.00 0.00 0.00 0.00 0.00 0.00 0.00 0.00 0.00 0.00 0.00 0.00 0.00 0.00 0.00 0.00 0.00 0.00 0.00 0.00 0.00 0.00 0.00 0.00 0.00 0.00 0.00 0.00 0.00 0.00 0.00 0.00 0.00 0.00 0.00 0.00 0.00 0.00 0.00 0.00 0.00 0.00 0.00 0.00 0.00 0.00 0.00 0.00 0.00 0.00
0.00 0.00 0.00 0.00 0.00 0.01 0.00 0.00 0.00 0.00 0.00 0.00 0.00 0.00 0.00 0.00 0.00 0.00 0.00 0.00 0.00 0.00 0.00 0.00 0.00 0.00 0.00 0.00 0.00 0.00 0.00 0.00 0.00 0.00 0.00 0.00 0.00 0.00 0.00 0.00 0.00 0.00 0.00 0.00 0.00 0.00 0.00 0.00 0.00 0.00 0.00 0.00 0.00 0.00
0.00 0.00 0.00 0.00 0.01 0.01 0.01 0.01 0.01 0.01 0.00 0.00 0.00 0.00 0.00 0.00 0.00 0.00 0.00 0.00 0.00 0.00 0.00 0.00 0.00 0.00 0.00 0.00 0.00 0.00 0.00 0.00 0.00 0.00 0.00 0.00 0.00 0.00 0.00 0.00 0.00 0.00 0.00 0.00 0.00 0.00 0.00 0.00 0.00 0.00 0.00 0.00 0.00 0.00
0.00 0.01 0.01 0.01 0.00 0.00 0.01 0.01 0.01 0.01 0.01 0.00 0.00 0.00 0.00 0.00 0.00 0.00 0.00 0.00 0.00 0.00 0.00 0.00 0.00 0.00 0.00 0.00 0.00 0.00 0.00 0.00 0.00 0.00 0.00 0.00 0.00 0.00 0.00 0.00 0.00 0.00 0.00 0.00 0.00 0.00 0.00 0.00 0.00 0.00 0.00 0.00 0.00 0.00
0.00 0.00 0.00 0.00 0.00 0.01 0.01 0.01 0.01 0.01 0.00 0.01 0.00 0.00 0.00 0.00 0.00 0.00 0.00 0.00 0.00 0.00 0.00 0.01 0.00 0.00 0.00 0.00 0.00 0.00 0.00 0.00 0.00 0.00 0.00 0.00 0.00 0.00 0.00 0.00 0.00 0.00 0.00 0.00 0.00 0.00 0.00 0.00 0.00 0.00 0.00 0.00 0.00 0.00
0.00 0.00 0.00 0.00 0.00 0.00 0.00 0.00 0.01 0.01 0.01 0.00 0.00 0.00 0.00 0.00 0.00 0.00 0.00 0.00 0.00 0.00 0.00 0.00 0.00 0.00 0.00 0.00 0.00 0.00 0.00 0.00 0.00 0.00 0.00 0.00 0.00 0.00 0.00 0.00 0.00 0.00 0.00 0.00 0.00 0.00 0.00 0.00 0.00 0.00 0.00 0.00 0.00 0.00
0.00 0.01 0.01 0.01 0.01 0.00 0.00 0.01 0.01 0.02 0.01 0.00 0.00 0.00 0.00 0.00 0.00 0.00 0.00 0.00 0.00 0.00 0.00 0.00 0.00 0.00 0.00 0.00 0.00 0.00 0.00 0.00 0.00 0.00 0.00 0.00 0.00 0.00 0.00 0.00 0.00 0.00 0.00 0.00 0.00 0.00 0.00 0.00 0.00 0.00 0.00 0.00 0.00 0.00
0.00 0.01 0.01 0.01 0.01 0.00 0.00 0.01 0.03 0.03 0.01 0.00 0.00 0.00 0.00 0.00 0.00 0.00 0.00 0.00 0.00 0.00 0.00 0.00 0.00 0.00 0.00 0.00 0.00 0.00 0.00 0.00 0.00 0.00 0.00 0.00 0.00 0.00 0.00 0.00 0.00 0.00 0.00 0.00 0.00 0.00 0.00 0.00 0.00 0.00 0.00 0.00 0.00 0.00
0.00 0.01 0.01 0.01 0.01 0.02 0.01 0.01 0.04 0.02 0.00 0.00 0.00 0.00 0.00 0.00 0.00 0.00 0.00 0.00 0.00 0.00 0.00 0.00 0.00 0.00 0.00 0.00 0.00 0.00 0.00 0.00 0.00 0.00 0.00 0.00 0.00 0.00 0.00 0.00 0.00 0.00 0.00 0.00 0.00 0.00 0.00 0.00 0.00 0.00 0.00 0.00 0.00 0.00
0.01 0.01 0.01 0.01 0.00 0.00 0.01 0.00 0.04 0.01 0.00 0.00 0.00 0.00 0.00 0.00 0.00 0.00 0.00 0.00 0.00 0.00 0.00 0.00 0.00 0.00 0.00 0.00 0.00 0.00 0.00 0.00 0.00 0.00 0.00 0.00 0.00 0.00 0.00 0.00 0.00 0.00 0.00 0.00 0.00 0.00 0.00 0.00 0.00 0.00 0.00 0.00 0.00 0.00
0.01 0.00 0.00 0.00 0.00 0.00 0.00 0.01 0.05 0.00 0.00 0.00 0.00 0.00 0.00 0.00 0.00 0.00 0.00 0.00 0.00 0.00 0.00 0.00 0.00 0.00 0.00 0.00 0.00 0.00 0.00 0.00 0.00 0.00 0.00 0.00 0.00 0.00 0.00 0.00 0.00 0.00 0.00 0.00 0.00 0.00 0.00 0.00 0.00 0.00 0.00 0.00 0.00 0.00
0.00 0.01 0.00 0.00 0.00 0.00 0.02 0.05 0.05 0.01 0.01 0.00 0.00 0.00 0.00 0.00 0.00 0.00 0.00 0.00 0.00 0.00 0.00 0.00 0.00 0.00 0.00 0.00 0.00 0.00 0.00 0.00 0.00 0.00 0.00 0.00 0.00 0.00 0.00 0.00 0.00 0.00 0.00 0.00 0.00 0.00 0.00 0.00 0.00 0.00 0.00 0.00 0.00 0.00
0.05 0.02 0.00 0.00 0.00 0.01 0.07 0.04 0.01 0.02 0.01 0.00 0.00 0.00 0.00 0.00 0.00 0.00 0.00 0.00 0.00 0.00 0.00 0.00 0.00 0.01 0.00 0.00 0.00 0.00 0.00 0.00 0.00 0.00 0.00 0.00 0.00 0.00 0.00 0.00 0.00 0.00 0.00 0.00 0.00 0.00 0.00 0.00 0.00 0.00 0.00 0.00 0.00 0.00
0.03 0.01 0.02 0.03 0.04 0.02 0.02 0.01 0.01 0.01 0.01 0.00 0.00 0.00 0.00 0.00 0.00 0.00 0.00 0.00 0.00 0.00 0.00 0.01 0.02 0.02 0.01 0.00 0.00 0.00 0.00 0.00 0.00 0.00 0.00 0.00 0.00 0.00 0.00 0.00 0.00 0.00 0.00 0.00 0.00 0.00 0.00 0.00 0.00 0.00 0.00 0.00 0.00 0.00
0.03 0.02 0.03 0.05 0.08 0.04 0.03 0.02 0.00 0.00 0.00 0.00 0.00 0.00 0.00 0.00 0.00 0.00 0.00 0.00 0.00 0.00 0.00 0.00 0.00 0.00 0.00 0.00 0.00 0.00 0.00 0.00 0.00 0.00 0.00 0.00 0.00 0.00 0.00 0.00 0.00 0.00 0.00 0.00 0.00 0.00 0.00 0.00 0.00 0.00 0.00 0.00 0.00 0.00
0.03 0.02 0.03 0.04 0.07 0.05 0.06 0.04 0.01 0.00 0.00 0.00 0.00 0.00 0.00 0.00 0.00 0.00 0.00 0.00 0.00 0.00 0.00 0.00 0.00 0.00 0.00 0.00 0.00 0.00 0.00 0.00 0.00 0.00 0.00 0.00 0.00 0.00 0.00 0.00 0.00 0.00 0.00 0.00 0.00 0.00 0.00 0.00 0.00 0.00 0.00 0.00 0.00 0.00
0.00 0.00 0.00 0.02 0.02 0.02 0.02 0.01 0.00 0.00 0.00 0.00 0.00 0.00 0.00 0.00 0.00 0.00 0.00 0.00 0.00 0.00 0.00 0.00 0.00 0.00 0.00 0.00 0.00 0.00 0.00 0.00 0.00 0.00 0.00 0.00 0.00 0.00 0.00 0.00 0.00 0.00 0.00 0.00 0.00 0.00 0.00 0.00 0.00 0.00 0.00 0.00 0.00 0.00
0.00 0.00 0.00 0.01 0.01 0.01 0.01 0.00 0.00 0.00 0.00 0.00 0.00 0.00 0.00 0.00 0.00 0.00 0.00 0.00 0.00 0.00 0.00 0.00 0.00 0.00 0.00 0.00 0.00 0.00 0.00 0.00 0.00 0.00 0.00 0.00 0.00 0.00 0.00 0.00 0.00 0.00 0.00 0.00 0.00 0.00 0.00 0.00 0.00 0.00 0.00 0.00 0.00 0.00
0.00 0.00 0.00 0.00 0.01 0.01 0.01 0.00 0.00 0.00 0.00 0.00 0.00 0.00 0.00 0.00 0.00 0.00 0.00 0.00 0.00 0.00 0.00 0.00 0.00 0.00 0.00 0.00 0.00 0.00 0.00 0.00 0.00 0.00 0.00 0.00 0.00 0.00 0.00 0.00 0.00 0.00 0.00 0.00 0.00 0.00 0.00 0.00 0.00 0.00 0.00 0.00 0.00 0.00
0.00 0.00 0.00 0.00 0.00 0.00 0.00 0.00 0.00 0.00 0.00 0.00 0.00 0.00 0.00 0.00 0.00 0.00 0.00 0.00 0.00 0.00 0.00 0.00 0.00 0.00 0.00 0.00 0.00 0.00 0.00 0.00 0.00 0.00 0.00 0.00 0.00 0.00 0.00 0.00 0.00 0.00 0.00 0.00 0.00 0.00 0.00 0.00 0.00 0.00 0.00 0.00 0.00 0.00
0.00 0.00 0.00 0.00 0.00 0.00 0.00 0.00 0.00 0.00 0.00 0.00 0.00 0.00 0.00 0.00 0.00 0.00 0.00 0.00 0.00 0.00 0.00 0.00 0.00 0.00 0.00 0.00 0.00 0.00 0.00 0.00 0.00 0.00 0.00 0.00 0.00 0.00 0.00 0.00 0.00 0.00 0.00 0.00 0.00 0.00 0.00 0.00 0.00 0.00 0.00 0.00 0.00 0.00
0.00 0.00 0.00 0.00 0.00 0.00 0.00 0.00 0.00 0.00 0.00 0.00 0.00 0.00 0.00 0.00 0.00 0.00 0.00 0.00 0.00 0.00 0.00 0.00 0.00 0.00 0.00 0.00 0.00 0.00 0.00 0.00 0.00 0.00 0.00 0.00 0.00 0.00 0.00 0.00 0.00 0.00 0.00 0.00 0.00 0.00 0.00 0.00 0.00 0.00 0.00 0.00 0.00 0.00
0.00 0.00 0.00 0.00 0.00 0.00 0.00 0.00 0.00 0.00 0.00 0.00 0.00 0.00 0.00 0.00 0.00 0.00 0.00 0.00 0.00 0.00 0.00 0.00 0.00 0.00 0.00 0.00 0.00 0.00 0.00 0.00 0.00 0.00 0.00 0.00 0.00 0.00 0.00 0.00 0.00 0.00 0.00 0.00 0.00 0.00 0.00 0.00 0.00 0.00 0.00 0.00 0.00 0.00
0.00 0.00 0.00 0.00 0.00 0.00 0.00 0.00 0.00 0.00 0.00 0.00 0.00 0.00 0.00 0.00 0.00 0.00 0.00 0.00 0.00 0.00 0.00 0.00 0.00 0.00 0.00 0.00 0.00 0.00 0.00 0.00 0.00 0.00 0.00 0.00 0.00 0.00 0.00 0.00 0.00 0.00 0.00 0.00 0.00 0.00 0.00 0.00 0.00 0.00 0.00 0.00 0.00 0.00
0.00 0.00 0.00 0.00 0.00 0.00 0.00 0.00 0.00 0.00 0.00 0.00 0.00 0.00 0.00 0.00 0.00 0.00 0.00 0.00 0.00 0.00 0.00 0.00 0.00 0.00 0.00 0.00 0.00 0.00 0.00 0.00 0.00 0.00 0.00 0.00 0.00 0.00 0.00 0.00 0.00 0.00 0.00 0.00 0.00 0.00 0.00 0.00 0.00 0.00 0.00 0.00 0.00 0.00
0.00 0.00 0.00 0.00 0.00 0.00 0.00 0.00 0.00 0.00 0.00 0.00 0.00 0.00 0.00 0.00 0.00 0.00 0.00 0.00 0.00 0.00 0.00 0.00 0.00 0.00 0.00 0.00 0.00 0.00 0.00 0.00 0.00 0.00 0.00 0.00 0.00 0.00 0.00 0.00 0.00 0.00 0.00 0.00 0.00 0.00 0.00 0.00 0.00 0.00 0.00 0.00 0.00 0.00
0.00 0.00 0.00 0.00 0.00 0.00 0.00 0.00 0.00 0.00 0.00 0.00 0.00 0.00 0.00 0.00 0.00 0.00 0.00 0.00 0.00 0.00 0.00 0.00 0.00 0.00 0.00 0.00 0.00 0.00 0.00 0.00 0.00 0.00 0.00 0.00 0.00 0.00 0.00 0.00 0.00 0.00 0.00 0.00 0.00 0.00 0.00 0.00 0.00 0.00 0.00 0.00 0.00 0.00
0.00 0.00 0.00 0.00 0.00 0.00 0.00 0.00 0.00 0.00 0.00 0.00 0.00 0.00 0.00 0.00 0.00 0.00 0.00 0.00 0.00 0.00 0.00 0.00 0.00 0.00 0.00 0.00 0.00 0.00 0.00 0.00 0.00 0.00 0.00 0.00 0.00 0.00 0.00 0.00 0.00 0.00 0.00 0.00 0.00 0.00 0.00 0.00 0.00 0.00 0.00 0.00 0.00 0.00
0.00 0.00 0.00 0.00 0.00 0.00 0.00 0.00 0.00 0.00 0.00 0.00 0.00 0.00 0.00 0.00 0.00 0.00 0.00 0.00 0.00 0.00 0.00 0.00 0.00 0.00 0.00 0.00 0.00 0.00 0.00 0.00 0.00 0.00 0.00 0.00 0.00 0.00 0.00 0.00 0.00 0.00 0.00 0.00 0.00 0.00 0.00 0.00 0.00 0.00 0.00 0.00 0.00 0.00
MSLP
1028.21 1028.22 1028.26 1028.39 1028.47 1028.34 1028.23 1028.33 1028.34 1028.23 1028.11 1028.00 1027.80 1027.57 1027.38 1027.19 1026.95 1026.86 1027.19 1027.05 1027.20 1027.23 1026.21 1025.75 1025.61 1025.70 1026.26 1026.44 1026.96 1028.59 1029.45 1029.81 1029.86 1029.33 1028.23 1027.34 1026.59 1025.98 1026.06 1025.41 1026.21 1027.01 1027.82 1027.48 1026.98 1025.42 1022.65 1019.68 1020.82 1020.71 1018.96 1018.57 1018.83 1018.69
1028.77 1028.76 1028.72 1028.90 1028.78 1028.51 1028.53 1028.45 1028.31 1028.35 1028.27 1028.04 1027.97 1027.79 1027.59 1027.24 1027.07 1026.66 1027.24 1027.33 1027.20 1027.39 1026.47 1025.91 1025.20 1024.74 1024.83 1025.10 1025.92 1027.46 1027.38 1027.44 1027.23 1027.24 1027.13 1026.64 1026.45 1025.92 1025.21 1024.65 1023.96 1024.71 1023.58 1023.28 1023.00 1021.11 1019.18 1019.04 1018.58 1018.14 1018.11 1018.28 1018.35 1018.52
1029.04 1029.05 1029.22 1029.13 1028.84 1028.80 1028.64 1028.41 1028.45 1028.34 1028.23 1028.18 1028.01 1027.84 1027.62 1027.43 1027.06 1027.01 1027.06 1027.34 1027.34 1027.38 1026.36 1025.92 1025.04 1024.47 1024.59 1024.78 1024.68 1025.73 1026.51 1026.11 1026.45 1026.20 1025.86 1025.97 1025.83 1025.34 1024.94 1023.75 1022.93 1022.74 1021.69 1021.90 1021.24 1019.02 1018.03 1017.74 1017.49 1017.87 1018.08 1018.23 1018.19 1018.28
1029.23 1029.25 1029.14 1028.90 1028.78 1028.70 1028.54 1028.72 1028.58 1028.35 1028.19 1027.94 1027.86 1027.68 1027.52 1027.25 1027.06 1027.01 1027.14 1027.01 1027.14 1027.22 1026.82 1025.23 1024.70 1025.00 1024.96 1024.90 1025.10 1025.16 1025.50 1026.10 1026.25 1026.26 1026.30 1025.84 1025.74 1024.98 1023.80 1023.02 1022.46 1021.42 1021.40 1020.70 1019.03 1018.14 1017.37 1017.21 1017.75 1017.96 1018.09 1018.27 1018.16 1018.10
1029.18 1029.21 1028.91 1028.72 1028.74 1028.58 1028.63 1028.58 1028.45 1028.19 1028.10 1027.71 1027.59 1027.51 1027.31 1026.79 1026.30 1026.42 1026.47 1026.57 1026.59 1027.25 1026.46 1025.62 1024.90 1025.29 1025.41 1025.52 1025.69 1025.87 1025.92 1026.25 1026.43 1026.41 1025.93 1025.61 1025.33 1025.17 1023.52 1023.22 1021.10 1020.47 1019.72 1019.66 1018.02 1017.91 1018.03 1018.22 1018.42 1018.49 1018.75 1018.80 1018.73 1018.42
1029.25 1029.13 1028.92 1028.66 1028.37 1028.21 1028.26 1028.05 1027.93 1027.84 1027.80 1027.82 1027.53 1027.43 1027.25 1026.83 1026.39 1026.42 1026.38 1026.96 1026.60 1026.66 1026.84 1025.91 1025.00 1025.50 1025.73 1025.64 1025.90 1026.00 1026.02 1026.18 1026.22 1026.02 1025.46 1024.98 1024.84 1024.97 1023.70 1021.38 1018.67 1018.34 1018.44 1018.33 1018.50 1018.56 1018.73 1018.63 1018.79 1018.71 1018.92 1018.76 1018.51 1018.35
1028.92 1028.77 1028.50 1028.18 1028.14 1028.16 1027.98 1027.80 1027.76 1027.56 1027.52 1027.51 1027.36 1027.22 1027.14 1027.03 1026.64 1026.79 1026.95 1027.05 1026.68 1026.72 1026.74 1025.99 1025.27 1025.68 1026.09 1026.27 1026.29 1026.26 1026.19 1026.00 1025.96 1025.85 1025.30 1024.95 1024.89 1024.89 1023.73 1021.62 1017.29 1019.41 1019.30 1019.06 1019.36 1019.50 1019.55 1019.53 1019.44 1018.99 1018.80 1018.35 1017.84 1017.51
1028.54 1028.52 1028.09 1027.90 1027.98 1027.91 1027.88 1027.72 1027.51 1027.40 1027.21 1027.05 1026.95 1026.91 1026.83 1026.74 1026.85 1026.99 1027.02 1026.86 1026.85 1027.08 1027.01 1026.47 1025.32 1025.89 1025.92 1025.84 1026.30 1026.43 1026.39 1026.48 1026.01 1025.43 1025.50 1025.38 1025.57 1025.11 1023.26 1020.30 1019.96 1019.92 1019.99 1020.23 1020.36 1020.41 1020.40 1019.86 1019.43 1018.95 1018.14 1017.78 1017.41 1017.09
1028.13 1028.02 1027.83 1027.73 1027.74 1027.58 1027.56 1027.42 1027.41 1027.16 1026.90 1026.87 1026.80 1026.51 1026.75 1027.11 1027.05 1026.97 1027.00 1027.04 1027.06 1027.51 1026.69 1025.90 1025.77 1025.38 1025.79 1025.88 1026.07 1026.40 1026.21 1026.20 1025.81 1025.62 1025.30 1025.30 1024.65 1023.92 1021.32 1021.07 1020.88 1020.83 1020.94 1021.13 1020.44 1020.25 1019.92 1019.51 1018.68 1017.95 1017.43 1017.20 1017.15 1016.32
1027.81 1027.66 1027.57 1027.52 1027.34 1027.16 1027.07 1027.01 1026.93 1026.86 1026.76 1026.83 1026.89 1027.11 1027.23 1027.43 1027.15 1027.03 1026.55 1026.86 1026.91 1026.55 1026.07 1025.32 1024.60 1025.10 1025.58 1025.87 1025.91 1026.11 1026.08 1025.87 1025.57 1025.15 1025.32 1025.22 1023.77 1021.90 1020.75 1020.81 1020.46 1020.43 1020.52 1020.62 1020.80 1019.76 1019.04 1018.47 1017.73 1016.89 1016.62 1016.32 1016.15 1015.70
1027.47 1027.32 1027.18 1027.03 1026.95 1026.84 1026.75 1026.63 1026.58 1026.61 1026.74 1027.09 1027.74 1027.97 1027.76 1027.25 1027.14 1027.11 1026.91 1026.72 1026.05 1025.67 1025.20 1024.48 1024.38 1024.94 1025.10 1025.60 1025.57 1025.60 1025.39 1025.60 1025.72 1025.28 1025.59 1024.57 1023.37 1021.43 1020.65 1020.47 1020.37 1020.29 1019.91 1019.79 1019.25 1018.73 1018.46 1018.02 1017.40 1016.72 1016.03 1015.44 1015.01 1014.79
1027.16 1026.94 1026.70 1026.58 1026.44 1026.40 1026.37 1026.27 1026.20 1026.67 1027.15 1027.30 1027.68 1027.90 1027.96 1027.82 1027.24 1027.23 1026.44 1026.02 1025.85 1024.94 1024.43 1024.60 1024.81 1024.85 1025.17 1025.15 1025.34 1025.71 1025.51 1025.71 1025.46 1025.35 1025.52 1024.07 1021.91 1020.73 1020.92 1020.55 1020.11 1019.69 1019.56 1019.38 1018.97 1018.58 1017.71 1017.16 1016.39 1015.86 1015.42 1014.71 1014.18 1013.87
1026.39 1026.33 1026.20 1026.14 1026.05 1026.00 1025.94 1025.97 1025.94 1026.10 1026.97 1027.49 1027.75 1028.02 1027.79 1027.77 1027.71 1026.77 1026.19 1025.58 1025.18 1024.51 1024.88 1025.10 1025.13 1024.98 1025.27 1025.51 1025.30 1025.51 1025.70 1025.65 1025.43 1025.43 1024.27 1022.50 1020.60 1020.20 1020.14 1019.57 1019.28 1019.03 1018.92 1018.56 1018.18 1017.61 1016.88 1016.27 1015.59 1015.12 1014.37 1013.58 1013.29 1013.00
1025.89 1025.77 1025.68 1025.71 1025.66 1025.64 1025.64 1025.69 1025.82 1026.63 1027.13 1027.23 1027.26 1027.29 1027.31 1026.73 1025.96 1025.06 1025.06 1024.75 1024.71 1024.66 1024.80 1024.85 1025.17 1025.17 1024.87 1025.27 1024.87 1025.08 1024.83 1025.14 1025.13 1024.36 1022.74 1020.68 1019.72 1019.37 1018.84 1018.86 1018.86 1018.27 1017.98 1017.86 1017.20 1016.53 1016.09 1015.43 1014.68 1014.01 1013.45 1012.74 1012.52 1011.98
1025.29 1025.05 1025.03 1025.05 1025.17 1025.14 1025.20 1025.35 1025.66 1026.63 1027.07 1026.84 1026.45 1025.98 1025.39 1024.54 1024.54 1024.86 1025.00 1025.18 1024.86 1024.68 1025.02 1025.07 1025.09 1025.03 1024.75 1024.78 1024.44 1024.30 1024.58 1024.15 1023.22 1021.83 1020.21 1019.10 1018.55 1018.25 1018.05 1017.68 1017.73 1017.54 1017.22 1016.77 1016.23 1015.90 1015.10 1014.53 1014.10 1013.42 1012.65 1012.12 1011.77 1011.27
1024.64 1024.50 1024.22 1024.16 1024.50 1024.62 1024.60 1025.11 1025.94 1026.63 1026.72 1026.17 1024.82 1024.14 1023.95 1024.55 1024.55 1024.88 1024.80 1024.81 1024.45 1024.55 1024.75 1024.78 1024.46 1024.45 1023.77 1023.50 1023.37 1023.07 1022.82 1021.61 1020.36 1019.83 1018.48 1017.85 1017.47 1017.26 1017.16 1017.11 1016.80 1016.36 1016.12 1015.87 1015.52 1015.29 1014.84 1014.33 1013.80 1013.11 1012.11 1011.66 1011.07 1010.72
1024.04 1023.85 1023.51 1023.57 1023.72 1023.83 1024.03 1025.12 1025.63 1025.72 1025.12 1024.29 1023.17 1022.57 1022.78 1023.06 1022.89 1022.97 1023.29 1023.34 1023.33 1024.21 1024.23 1023.97 1023.54 1022.97 1022.53 1021.87 1021.54 1021.02 1020.35 1019.18 1018.37 1017.69 1017.15 1016.73 1016.67 1016.60 1016.45 1016.18 1015.98 1015.89 1015.90 1015.80 1015.51 1015.08 1014.65 1014.16 1013.57 1012.89 1011.91 1011.07 1010.80 1010.28
1023.35 1023.18 1023.12 1023.15 1023.24 1023.51 1023.69 1024.07 1024.20 1023.95 1023.32 1022.62 1022.42 1021.40 1021.73 1021.19 1021.05 1020.97 1021.16 1022.22 1022.91 1022.91 1022.58 1022.27 1021.65 1021.38 1021.11 1020.24 1019.27 1018.20 1017.97 1017.33 1017.18 1016.81 1016.29 1015.85 1015.95 1015.80 1015.89 1016.07 1016.13 1016.27 1016.18 1015.91 1015.64 1015.19 1014.68 1014.07 1013.39 1012.52 1011.81 1011.02 1010.29 1009.65
1022.52 1022.44 1022.39 1022.48 1022.74 1023.10 1023.07 1022.79 1022.84 1021.91 1021.08 1020.96 1020.22 1020.07 1019.96 1019.31 1019.33 1019.25 1020.01 1020.39 1020.73 1020.98 1021.13 1020.95 1020.42 1019.35 1018.18 1017.63 1017.21 1016.75 1017.05 1017.03 1016.72 1016.11 1015.65 1015.49 1015.72 1016.08 1016.36 1016.49 1016.57 1016.50 1016.32 1016.20 1015.78 1015.25 1014.77 1014.27 1013.57 1012.57 1011.71 1010.99 1010.18 1009.44
1021.83 1021.72 1021.75 1021.86 1022.21 1022.37 1022.21 1021.74 1021.38 1020.56 1019.59 1019.02 1018.92 1018.59 1018.94 1018.50 1018.28 1018.67 1019.06 1019.65 1020.27 1020.74 1020.47 1019.62 1018.27 1016.86 1016.30 1015.56 1015.84 1016.31 1016.38 1016.34 1016.45 1016.55 1015.71 1015.86 1016.36 1016.70 1017.09 1017.21 1017.21 1017.07 1016.77 1016.33 1015.89 1015.45 1014.77 1013.93 1013.49 1012.66 1012.00 1011.12 1010.14 1009.22
1021.54 1021.43 1021.24 1021.53 1021.75 1021.92 1021.46 1020.59 1020.21 1019.58 1018.95 1018.42 1017.58 1017.90 1017.85 1017.38 1017.49 1017.68 1018.22 1018.95 1019.56 1019.27 1018.50 1016.82 1015.92 1015.53 1015.42 1015.76 1016.12 1016.54 1016.86 1017.02 1017.34 1017.44 1017.38 1017.34 1017.47 1017.80 1017.90 1017.92 1017.79 1017.53 1017.16 1016.64 1016.08 1015.46 1015.03 1014.24 1013.51 1012.81 1012.07 1011.05 1010.06 1009.17
1021.56 1021.19 1021.23 1021.18 1021.40 1020.84 1020.10 1019.19 1018.94 1018.42 1018.64 1018.09 1018.09 1017.69 1017.30 1017.09 1016.91 1016.83 1017.40 1018.13 1017.95 1016.60 1016.33 1016.05 1015.86 1015.96 1015.99 1016.70 1017.32 1017.62 1018.09 1018.21 1018.32 1018.46 1018.50 1018.67 1018.66 1018.74 1018.65 1018.56 1018.11 1017.73 1017.38 1016.87 1016.38 1015.76 1015.00 1014.36 1013.64 1012.70 1011.88 1010.88 1009.99 1009.13
1021.42 1021.43 1021.39 1021.21 1020.98 1020.17 1019.48 1019.42 1019.15 1018.49 1018.44 1018.09 1017.84 1017.64 1017.21 1017.12 1016.69 1016.61 1017.05 1016.56 1016.10 1016.09 1016.40 1016.86 1017.30 1017.49 1017.74 1018.10 1018.33 1018.79 1019.08 1019.19 1019.29 1019.47 1019.66 1019.70 1019.75 1019.53 1019.38 1018.97 1018.39 1018.00 1017.42 1016.74 1016.34 1015.76 1015.09 1014.30 1013.55 1012.63 1011.83 1011.17 1010.20 1009.10
1021.38 1021.61 1021.41 1020.94 1020.51 1020.42 1020.50 1020.21 1019.83 1019.52 1018.89 1018.63 1017.95 1017.37 1017.05 1017.13 1017.53 1017.69 1017.42 1016.41 1016.78 1017.90 1018.60 1018.94 1018.79 1018.85 1019.11 1019.26 1019.76 1020.05 1020.41 1020.50 1020.45 1020.37 1020.43 1020.46 1020.51 1020.22 1019.77 1019.05 1018.40 1017.93 1017.47 1016.78 1016.25 1015.66 1014.90 1014.15 1013.33 1012.76 1012.05 1011.20 1010.26 1009.36
1021.73 1021.40 1021.64 1020.99 1020.81 1021.30 1021.21 1020.87 1020.63 1020.19 1019.58 1018.88 1018.48 1017.78 1017.60 1017.89 1018.33 1018.55 1018.44 1018.98 1019.75 1020.42 1020.68 1020.39 1020.46 1020.58 1020.62 1020.79 1021.02 1021.17 1021.36 1021.60 1021.44 1021.28 1020.98 1020.90 1021.06 1020.56 1019.80 1019.07 1018.34 1017.72 1017.09 1016.49 1015.91 1015.24 1014.53 1013.95 1013.22 1012.50 1011.66 1010.90 1010.06 1009.12
1021.24 1020.66 1021.00 1020.71 1020.91 1021.28 1020.89 1021.00 1020.67 1020.31 1020.07 1019.50 1018.81 1018.43 1018.54 1018.86 1019.37 1019.63 1020.66 1021.78 1022.16 1022.49 1022.55 1022.40 1022.29 1022.04 1021.97 1022.10 1022.32 1022.09 1022.08 1022.11 1022.08 1021.96 1021.43 1021.23 1021.27 1021.07 1020.44 1019.57 1018.47 1017.25 1016.74 1016.60 1015.86 1014.78 1013.79 1013.12 1012.43 1011.69 1010.98 1010.23 1009.49 1008.77
1021.09 1020.94 1021.08 1021.14 1021.26 1021.21 1021.02 1020.55 1020.60 1020.71 1020.41 1019.97 1019.48 1019.78 1019.95 1020.25 1020.42 1021.58 1022.50 1023.40 1023.59 1023.85 1023.92 1023.74 1023.47 1023.17 1023.07 1022.95 1022.78 1022.54 1022.45 1022.47 1022.53 1022.20 1021.56 1021.22 1020.92 1020.66 1020.45 1019.86 1018.84 1017.79 1016.92 1015.91 1015.10 1014.28 1013.17 1012.21 1011.49 1010.78 1010.07 1009.40 1008.82 1008.26
1022.21 1022.22 1022.23 1022.10 1021.74 1021.39 1021.15 1020.89 1020.91 1020.74 1020.50 1020.55 1020.56 1020.71 1020.99 1021.67 1022.63 1023.45 1023.92 1024.35 1024.48 1024.34 1024.13 1024.01 1023.91 1023.80 1023.60 1023.45 1023.34 1023.18 1022.98 1022.87 1022.28 1021.58 1020.96 1020.74 1020.30 1019.91 1019.58 1019.21 1018.55 1017.68 1016.63 1015.77 1014.79 1013.74 1012.81 1011.74 1010.54 1009.48 1008.77 1008.20 1007.62 1007.09
1023.22 1023.14 1023.16 1022.81 1022.46 1022.01 1021.68 1021.69 1021.64 1021.94 1022.24 1021.89 1021.88 1021.97 1022.55 1023.49 1024.36 1024.70 1024.84 1024.97 1024.87 1024.68 1024.48 1024.41 1024.39 1024.29 1024.07 1023.85 1023.78 1023.70 1023.66 1023.57 1023.22 1022.87 1022.55 1021.91 1020.96 1020.03 1019.46 1018.97 1018.27 1017.16 1016.37 1015.41 1014.37 1013.53 1012.42 1010.87 1009.73 1008.65 1007.71 1006.75 1006.19 1006.11
1024.63 1024.49 1024.07 1023.56 1023.28 1022.65 1022.76 1022.92 1022.91 1022.91 1022.87 1023.05 1023.21 1023.45 1023.91 1024.51 1025.27 1025.60 1025.58 1025.53 1025.43 1025.33 1025.25 1025.16 1025.12 1024.94 1024.83 1024.65 1024.55 1024.38 1024.17 1024.06 1024.14 1024.16 1023.70 1022.74 1021.87 1020.67 1019.71 1018.58 1017.79 1017.12 1016.53 1015.71 1014.71 1013.54 1012.26 1011.12 1009.91 1009.00 1008.18 1007.53 1007.06 1006.72
1026.30 1025.82 1025.44 1025.08 1024.50 1024.16 1024.01 1023.97 1023.72 1023.67 1023.73 1023.81 1024.01 1024.27 1024.63 1025.17 1025.73 1026.17 1026.36 1026.28 1026.08 1025.85 1025.66 1025.74 1025.51 1025.40 1025.40 1025.28 1025.19 1024.98 1024.58 1024.19 1024.11 1023.70 1023.13 1022.27 1021.34 1020.37 1019.39 1018.90 1018.27 1017.62 1016.96 1016.27 1015.44 1014.55 1013.67 1012.55 1011.42 1010.29 1009.41 1008.68 1007.92 1007.25
1028.27 1028.08 1027.84 1027.36 1026.16 1025.48 1025.35 1025.49 1025.13 1024.97 1025.10 1024.98 1025.08 1025.12 1025.36 1025.67 1026.09 1026.66 1026.89 1026.75 1026.51 1026.45 1026.19 1026.23 1026.09 1025.87 1025.74 1025.53 1025.52 1025.37 1024.80 1024.82 1024.28 1023.52 1022.47 1021.32 1020.57 1019.98 1019.66 1019.16 1018.49 1018.12 1017.49 1016.90 1016.26 1015.56 1014.84 1014.10 1013.19 1012.18 1011.29 1010.45 1009.45 1008.27
1030.02 1029.63 1029.29 1029.14 1028.20 1027.65 1027.31 1026.92 1026.42 1026.19 1026.09 1026.22 1026.26 1026.28 1026.37 1026.56 1026.80 1027.12 1027.04 1027.07 1027.06 1027.02 1026.79 1026.49 1026.13 1025.87 1025.67 1025.55 1025.49 1025.34 1025.09 1024.89 1024.33 1023.21 1021.98 1021.01 1020.26 1020.02 1020.06 1019.52 1018.78 1018.62 1018.10 1017.71 1017.22 1016.64 1016.03 1015.42 1014.78 1013.94 1013.05 1012.32 1011.52 1010.48
Thickness
5519 5522 5524 5524 5525 5527 5530 5530 5530 5532 5532 5533 5533 5533 5534 5534 5535 5534 5531 5527 5522 5513 5526 5530 5528 5520 5507 5507 5514 5482 5482 5470 5463 5469 5481 5480 5475 5475 5465 5489 5445 5451 5423 5416 5417 5417 5419 5470 5444 5454 5461 5465 5449 5448
5504 5506 5507 5508 5510 5514 5515 5516 5517 5517 5517 5518 5518 5518 5518 5520 5519 5519 5517 5511 5509 5504 5515 5516 5521 5522 5518 5513 5499 5474 5490 5481 5479 5481 5473 5471 5466 5454 5466 5478 5479 5462 5471 5468 5454 5448 5473 5455 5460 5463 5454 5444 5440 5425
5491 5492 5491 5493 5496 5498 5499 5501 5502 5502 5502 5502 5503 5504 5505 5505 5506 5505 5503 5499 5495 5492 5501 5500 5510 5510 5504 5500 5498 5488 5477 5479 5471 5465 5468 5460 5458 5450 5448 5450 5462 5452 5460 5447 5456 5477 5475 5469 5467 5450 5441 5433 5426 5414
5475 5476 5478 5482 5482 5483 5485 5485 5486 5487 5488 5489 5489 5490 5491 5492 5492 5490 5488 5487 5483 5479 5486 5504 5495 5492 5488 5485 5481 5478 5473 5459 5454 5451 5448 5445 5444 5445 5460 5454 5452 5464 5444 5444 5459 5465 5468 5461 5439 5432 5425 5414 5409 5402
5463 5463 5466 5469 5469 5471 5470 5470 5472 5473 5474 5477 5478 5477 5477 5480 5483 5480 5478 5475 5472 5467 5477 5479 5482 5474 5469 5465 5459 5453 5451 5445 5440 5437 5436 5436 5430 5422 5420 5417 5449 5446 5448 5435 5452 5455 5440 5435 5420 5412 5403 5394 5385 5380
5448 5450 5452 5454 5457 5458 5458 5460 5460 5461 5461 5461 5463 5462 5462 5463 5465 5464 5465 5457 5457 5453 5450 5467 5465 5452 5449 5449 5441 5437 5433 5429 5424 5425 5429 5425 5413 5411 5417 5444 5469 5449 5442 5440 5434 5423 5416 5411 5404 5396 5381 5376 5371 5364
5436 5437 5441 5444 5444 5443 5444 5445 5444 5446 5446 5446 5447 5447 5446 5445 5447 5447 5446 5439 5438 5435 5433 5448 5455 5435 5429 5426 5424 5419 5411 5410 5408 5408 5409 5411 5406 5398 5404 5427 5480 5425 5415 5419 5402 5389 5387 5385 5375 5374 5367 5364 5360 5352
5424 5424 5428 5429 5428 5428 5428 5428 5429 5429 5430 5431 5431 5430 5430 5429 5427 5426 5423 5423 5420 5415 5412 5425 5438 5424 5412 5416 5409 5398 5395 5388 5389 5392 5388 5387 5378 5377 5394 5416 5407 5401 5390 5378 5372 5365 5361 5360 5355 5352 5352 5346 5345 5340
5407 5409 5411 5412 5412 5413 5412 5413 5412 5413 5415 5414 5414 5417 5415 5409 5409 5408 5405 5402 5401 5396 5403 5411 5414 5409 5394 5393 5385 5378 5378 5379 5374 5378 5380 5370 5374 5380 5392 5385 5383 5375 5361 5354 5351 5344 5345 5336 5343 5346 5340 5332 5318 5323
5388 5390 5391 5392 5394 5396 5395 5394 5394 5395 5396 5395 5395 5393 5391 5391 5389 5389 5391 5389 5386 5386 5384 5397 5398 5400 5376 5368 5373 5373 5360 5365 5368 5368 5348 5353 5363 5380 5386 5374 5371 5355 5348 5332 5328 5331 5332 5331 5335 5332 5321 5317 5306 5299
5366 5368 5370 5372 5373 5374 5374 5375 5374 5374 5374 5372 5367 5368 5369 5371 5371 5369 5374 5378 5379 5382 5378 5386 5383 5378 5360 5357 5364 5342 5355 5350 5342 5339 5334 5355 5360 5356 5355 5344 5340 5334 5332 5326 5327 5326 5321 5315 5309 5306 5305 5302 5295 5285
5344 5348 5351 5353 5355 5355 5355 5355 5354 5352 5350 5347 5347 5347 5348 5350 5354 5356 5365 5369 5368 5374 5366 5365 5357 5352 5343 5341 5338 5324 5329 5323 5330 5308 5318 5323 5345 5341 5324 5324 5327 5318 5314 5313 5306 5301 5299 5294 5291 5284 5277 5276 5274 5268
5332 5333 5334 5336 5338 5338 5339 5337 5335 5337 5332 5327 5325 5328 5334 5331 5335 5347 5332 5351 5358 5348 5332 5336 5336 5330 5324 5318 5322 5311 5303 5301 5291 5302 5303 5319 5333 5317 5314 5312 5314 5306 5298 5293 5290 5285 5281 5279 5277 5269 5267 5270 5260 5255
5316 5318 5319 5320 5322 5323 5323 5322 5316 5318 5313 5312 5312 5318 5319 5313 5337 5343 5338 5336 5328 5326 5320 5323 5316 5313 5310 5299 5298 5298 5289 5272 5289 5299 5291 5305 5312 5306 5300 5291 5292 5295 5286 5281 5278 5276 5270 5268 5265 5263 5260 5257 5246 5244
5306 5307 5307 5307 5306 5305 5304 5303 5297 5300 5293 5298 5296 5300 5321 5337 5326 5318 5308 5307 5305 5305 5299 5292 5290 5288 5291 5281 5285 5281 5268 5253 5275 5282 5292 5302 5299 5291 5287 5287 5282 5278 5275 5271 5267 5261 5266 5263 5256 5255 5256 5250 5243 5241
5298 5299 5301 5298 5294 5292 5291 5286 5280 5279 5276 5281 5292 5309 5311 5303 5300 5294 5291 5291 5290 5282 5277 5275 5283 5272 5281 5272 5272 5267 5254 5270 5278 5279 5287 5293 5302 5289 5285 5282 5280 5275 5269 5264 5260 5255 5253 5250 5246 5243 5246 5242 5240 5235
5289 5293 5295 5292 5289 5287 5284 5274 5269 5269 5273 5283 5297 5302 5295 5293 5302 5296 5296 5291 5281 5269 5259 5269 5268 5270 5264 5267 5273 5262 5257 5274 5290 5290 5290 5292 5285 5281 5282 5277 5274 5266 5257 5250 5247 5247 5243 5240 5236 5232 5234 5238 5232 5230
5286 5285 5285 5284 5280 5277 5274 5269 5266 5268 5275 5283 5279 5304 5287 5292 5304 5307 5296 5271 5263 5258 5255 5260 5263 5263 5264 5261 5278 5294 5282 5289 5283 5281 5285 5291 5279 5278 5273 5265 5255 5245 5240 5240 5235 5232 5229 5227 5226 5226 5226 5228 5229 5228
5283 5281 5279 5276 5272 5267 5267 5268 5266 5273 5279 5275 5293 5296 5288 5299 5296 5296 5281 5270 5269 5262 5260 5256 5257 5260 5279 5282 5284 5286 5281 5278 5277 5283 5284 5279 5272 5261 5252 5246 5240 5236 5232 5225 5221 5220 5217 5215 5214 5216 5219 5220 5222 5223
5281 5279 5275 5272 5266 5263 5263 5266 5263 5271 5280 5286 5287 5290 5283 5287 5290 5285 5281 5263 5257 5250 5251 5255 5267 5286 5289 5294 5288 5279 5279 5272 5258 5259 5278 5270 5250 5242 5236 5229 5225 5220 5216 5213 5210 5209 5207 5210 5207 5208 5208 5211 5216 5218
5277 5275 5272 5267 5261 5258 5260 5268 5268 5271 5269 5269 5283 5281 5277 5274 5284 5284 5278 5260 5252 5251 5250 5276 5287 5291 5285 5276 5262 5257 5252 5244 5241 5240 5240 5237 5233 5224 5218 5213 5208 5206 5201 5198 5196 5197 5197 5198 5198 5199 5200 5204 5210 5213
5272 5269 5265 5261 5256 5259 5264 5272 5271 5267 5264 5264 5259 5267 5280 5279 5280 5279 5263 5260 5252 5276 5276 5282 5282 5277 5271 5254 5244 5239 5235 5231 5228 5224 5221 5215 5211 5207 5203 5199 5197 5192 5188 5187 5186 5186 5189 5188 5189 5193 5195 5200 5205 5208
5262 5260 5258 5257 5257 5263 5266 5255 5264 5268 5265 5258 5255 5262 5267 5260 5258 5259 5266 5262 5270 5260 5252 5246 5240 5236 5233 5227 5226 5222 5218 5215 5212 5206 5200 5194 5190 5190 5188 5186 5185 5179 5178 5181 5180 5179 5180 5182 5183 5186 5189 5190 5196 5203
5251 5249 5245 5246 5257 5251 5236 5235 5239 5236 5242 5244 5257 5262 5256 5240 5235 5246 5256 5260 5251 5235 5227 5223 5221 5220 5214 5212 5209 5206 5199 5195 5190 5185 5183 5179 5176 5174 5175 5176 5175 5173 5171 5172 5172 5172 5174 5175 5178 5177 5179 5183 5188 5194
5240 5237 5231 5235 5227 5223 5220 5216 5215 5220 5230 5236 5244 5253 5240 5230 5243 5249 5243 5231 5217 5208 5203 5204 5201 5199 5194 5190 5190 5186 5181 5176 5172 5170 5169 5166 5160 5159 5164 5165 5166 5165 5166 5167 5168 5169 5169 5169 5171 5173 5176 5179 5183 5189
5238 5237 5231 5232 5220 5212 5218 5220 5218 5214 5215 5219 5228 5220 5219 5226 5234 5242 5201 5183 5181 5179 5177 5178 5177 5179 5178 5173 5167 5167 5166 5162 5158 5154 5156 5152 5145 5141 5143 5150 5156 5163 5162 5159 5159 5165 5169 5171 5172 5174 5176 5179 5184 5188
5238 5226 5218 5214 5208 5207 5208 5209 5205 5207 5205 5202 5207 5196 5202 5217 5219 5180 5171 5162 5163 5159 5157 5156 5157 5157 5157 5155 5155 5155 5152 5148 5144 5143 5142 5140 5138 5136 5134 5136 5143 5150 5153 5158 5161 5163 5169 5173 5174 5175 5177 5180 5183 5186
5199 5192 5188 5188 5191 5197 5201 5203 5198 5194 5196 5184 5189 5188 5198 5199 5177 5150 5147 5144 5142 5142 5143 5142 5141 5140 5139 5139 5137 5136 5135 5132 5133 5134 5134 5133 5132 5132 5131 5132 5134 5140 5146 5149 5154 5159 5163 5168 5174 5180 5182 5184 5187 5190
5179 5177 5174 5175 5175 5182 5185 5183 5178 5164 5158 5163 5171 5180 5159 5139 5131 5129 5129 5127 5127 5128 5128 5126 5124 5122 5122 5121 5119 5118 5116 5114 5113 5111 5109 5113 5119 5122 5123 5123 5126 5134 5138 5143 5148 5151 5157 5167 5173 5179 5185 5192 5194 5193
5156 5152 5156 5165 5164 5174 5158 5148 5148 5145 5144 5140 5135 5130 5125 5119 5113 5111 5110 5109 5108 5107 5106 5105 5102 5102 5101 5100 5099 5099 5097 5097 5094 5088 5086 5094 5101 5107 5111 5118 5121 5123 5126 5130 5136 5142 5149 5155 5162 5166 5170 5176 5179 5178
5129 5133 5138 5140 5141 5135 5129 5125 5124 5125 5124 5120 5115 5113 5107 5099 5096 5091 5088 5088 5086 5085 5085 5082 5083 5082 5081 5080 5078 5077 5079 5081 5078 5079 5082 5087 5091 5097 5103 5104 5107 5109 5112 5116 5121 5125 5129 5134 5142 5149 5155 5158 5163 5169
5099 5096 5093 5089 5099 5102 5097 5094 5094 5093 5087 5090 5089 5086 5083 5081 5079 5070 5065 5064 5063 5062 5063 5059 5059 5059 5060 5059 5058 5058 5063 5059 5060 5062 5068 5077 5082 5085 5086 5089 5093 5093 5097 5100 5104 5107 5111 5114 5119 5124 5129 5134 5143 5153
5061 5058 5055 5056 5061 5067 5068 5066 5061 5067 5062 5054 5057 5057 5051 5050 5045 5043 5042 5041 5038 5036 5036 5037 5038 5039 5039 5039 5038 5039 5041 5041 5043 5047 5054 5060 5066 5068 5067 5072 5076 5076 5079 5081 5084 5088 5091 5094 5098 5102 5108 5112 5118 5127